Weather History for Fairbanks Eiels, AK

Change the Weather History Date:

Monday, May 27, 2013

  Actual Average Record
Temperature  
Mean Temperature 64 °F -  
Max Temperature 80 °F 64 °F 83 °F (2011)
Min Temperature 48 °F 42 °F 32 °F (1969)
Degree Days  
Heating Degree Days 2    
Growing Degree Days 14 (Base 50)    
Moisture  
Dew Point 38 °F    
Average Humidity 38    
Maximum Humidity 65    
Minimum Humidity 22    
Precipitation  
Precipitation 0.00 in - - ()
Sea Level Pressure  
Sea Level Pressure 29.80 in    
Wind  
Wind Speed 4 mph (North)    
Max Wind Speed 10 mph    
Max Gust Speed -    
Visibility 10 miles    
Events      
Averages and records for this station are not official NWS values.
T = Trace of Precipitation, MM = Missing Value Source: NWS Daily Summary

Daily Weather History Graph

Daily Weather History Graph

Search for Another Location

Airport:

Trip Planner

Search our weather history database for the weather conditions in past years. The results will help you decide how hot, cold, wet, or windy it might be!

Date:

Astronomy

May. 27, 2013 Rise Set
Actual Time 3:47 AM AKDT 11:46 PM AKDT
Civil Twilight 2:18 AM AKDT 1:13 AM AKDT
Nautical Twilight Sun does not rise Sun does not rise
Astronomical Twilight Sun does not rise Sun does not rise
Moon 1:10 AM AKDT (5/27) 7:08 AM AKDT (5/27)
Length of Visible Light 22h 55m
Length of Day
19h 59m
Waning Gibbous, 90% of the Moon is Illuminated
May 27
Waning Gibbous
May 31
Last Quarter
Jun 8
New
Jun 16
First Quarter
Jun 23
Full

Hourly Weather History & Observations

Time (AKDT) Temp. Dew Point Humidity Pressure Visibility Wind Dir Wind Speed Gust Speed Precip Events Conditions
12:55 AM 57.6 °F 38.8 °F 50% 29.80 in 10.0 mi Variable 4.6 mph - N/A   Overcast
1:55 AM 55.9 °F 39.4 °F 54% 29.81 in 10.0 mi Variable 4.6 mph - N/A   Scattered Clouds
2:55 AM 49.5 °F 38.3 °F 65% 29.83 in 10.0 mi SE 6.9 mph - N/A   Clear
3:55 AM 48.0 °F 36.5 °F 64% 29.84 in 10.0 mi Variable 5.8 mph - N/A   Scattered Clouds
4:55 AM 49.8 °F 36.9 °F 61% 29.85 in 10.0 mi Calm Calm - N/A   Mostly Cloudy
5:55 AM 50.9 °F 39.6 °F 65% 29.85 in 10.0 mi North 5.8 mph - N/A   Clear
6:55 AM 54.3 °F 39.6 °F 57% 29.86 in 10.0 mi Calm Calm - N/A   Clear
7:55 AM 59.4 °F 37.6 °F 44% 29.86 in 10.0 mi Calm Calm - N/A   Clear
8:55 AM 64.2 °F 36.9 °F 36% 29.86 in 10.0 mi Calm Calm - N/A   Clear
9:55 AM 67.5 °F 36.1 °F 32% 29.85 in 10.0 mi Variable 3.5 mph - N/A   Clear
10:55 AM 71.8 °F 37.4 °F 29% 29.84 in 10.0 mi Variable 4.6 mph - N/A   Clear
11:55 AM 75.4 °F 37.6 °F 25% 29.83 in 10.0 mi Variable 3.5 mph - N/A   Clear
12:55 PM 76.6 °F 38.7 °F 25% 29.81 in 10.0 mi Variable 6.9 mph - N/A   Clear
1:55 PM 79.2 °F 38.8 °F 24% 29.79 in 10.0 mi West 10.4 mph - N/A   Scattered Clouds
2:55 PM 77.9 °F 38.3 °F 24% 29.79 in 10.0 mi NNW 5.8 mph - N/A   Partly Cloudy
3:55 PM 77.0 °F 37.0 °F 24% 29.78 in 10.0 mi Calm Calm - N/A   Mostly Cloudy
4:55 PM 77.4 °F 37.4 °F 24% 29.77 in 10.0 mi Calm Calm - N/A   Mostly Cloudy
5:55 PM 77.9 °F 40.6 °F 26% 29.76 in 10.0 mi South 8.1 mph - N/A   Mostly Cloudy
6:55 PM 77.2 °F 37.4 °F 24% 29.75 in 10.0 mi North 4.6 mph - N/A   Mostly Cloudy
7:55 PM 79.3 °F 36.7 °F 22% 29.73 in 10.0 mi NE 9.2 mph - N/A   Partly Cloudy
8:55 PM 78.4 °F 37.4 °F 23% 29.73 in 10.0 mi ENE 8.1 mph - N/A   Scattered Clouds
9:55 PM 74.3 °F 37.8 °F 27% 29.73 in 10.0 mi Calm Calm - N/A   Mostly Cloudy
10:55 PM 68.5 °F 40.8 °F 36% 29.73 in 10.0 mi West 9.2 mph - N/A   Overcast
11:55 PM 65.7 °F 41.9 °F 42% 29.74 in 10.0 mi Variable 5.8 mph - N/A   Clear